BEIDOU-3 G1

Last updated on Tue Sep 22 2026 00:03:14 GMT+0000 (Coordinated Universal Time)

1 43683U 18085A 26264.67336372 -.00000111 00000+0 00000+0 0 9995 2 43683 2.6317 94.6439 0006008 21.8240 286.5804 1.00272353 29020
UTC large
Height (km)
Speed (km/s)
/
Latitude / Longitude
Inclination (degrees)
Orbital Period (minutes)
Azimuth
Elevation
Range (km)
Doppler Factor

Next 0 passes for location: London (51.5072 / 0.1276)

No passes found over London.
BEIDOU-3 G1